Погода в Хабаровске

Россия / Хабаровский край     48°28′48″N   135°04′18″E
темп.,
°C
ветер,
м/с
пор.,
м/с
влажн.,
%
обл.,
%
осадки,
мм/ч
давл.,
гПа
погр.,
м
20 апреля, вт
вт2001:00+5зсз101348100 0.1 9981055
04:00+1зсз1220400 0.1 10001220
07:00−1зсз1120445 0.0 10031621
10:00+2зсз131734100 0.0 10032329
13:00+3зсз111328100 0.0 10042495
16:00+7зсз811255 0.0 10062213
19:00+7зсз81333100 0.0 10081526
22:00+5зсз714380 0.0 1010601
21 апреля, ср
ср2101:00+4зсз714410 0.0 1012581
04:00+2з510440 0.0 1014249
07:00+1зюз38470 0.0 1016208
10:00+8зсз45260 0.0 1017668
13:00+14сз472318 0.0 10171185
16:00+17зсз46220 0.0 10161563
19:00+16зсз22310 0.0 101620
22:00+9в49440 0.0 1019143
22 апреля, чт
чт2201:00+7в46500 0.0 102192
04:00+5в47540 0.0 1022114
07:00+5всв36550 0.0 1022123
10:00+12в34350 0.0 1022371
13:00+19вюв34250 0.0 1021929
16:00+23ю24203 0.0 10191599
19:00+21юв222710 0.0 101822
22:00+16ю2333100 0.0 101914
23 апреля, пт
пт2301:00+14юз2337100 0.0 101916
04:00+13юз4746100 0.0 101995
07:00+12юз3853100 0.0 1020147
10:00+16юз5740100 0.0 1020493
13:00+20юз6633100 0.0 10191056
16:00+21зюз5733100 0.0 10171671
19:00+15сз61062100 0.0 1017504
22:00+11зсз6871100 0.4 1018739
24 апреля, сб
сб2401:00+8ссз5852100 0.2 1019667
04:00+3св41095100 1.1 1020549
07:00+4ссв2575100 0.5 1021764
10:00+5зсз448377 0.8 1021606
13:00+7з47496 0.3 10181553
16:00+12зсз91224100 0.3 10153104
19:00+9сз7113288 0.0 10152327
22:00+6зсз61238100 0.1 1014448